This is the latest recevied weather packets stored in our database for station/object KQ7A. If no packets are shown the sender has not sent any weather packets the latest 10 day(s).
| Time | Temp. | Humidity | Pressure | Rain* | Wind** | Luminosity | Snow |
|---|---|---|---|---|---|---|---|
| 1788324199 | 16.11° C | 25% | 1015.8 hPa | 0 mm | - | 0 W/m² | - |
| 1788323894 | 16.11° C | 24% | 1015.3 hPa | 0 mm | - | 0 W/m² | - |
| 1788323590 | 16.11° C | 24% | 1015.5 hPa | 0 mm | - | 0 W/m² | - |
| 1788323289 | 16.11° C | 25% | 1015.6 hPa | 0 mm | - | 0 W/m² | - |
| 1788322984 | 16.11° C | 25% | 1015.6 hPa | 0 mm | - | 0 W/m² | - |
| 1788322679 | 15.56° C | 24% | 1015.9 hPa | 0 mm | - | 0 W/m² | - |
| 1788322379 | 16.11° C | 21% | 1015.6 hPa | 0 mm | - | 0 W/m² | - |
| 1788322078 | 16.67° C | 24% | 1015.8 hPa | 0 mm | - | 0 W/m² | - |
| 1788321774 | 16.67° C | 21% | 1015.5 hPa | 0 mm | - | 0 W/m² | - |
| 1788321472 | 16.67° C | 23% | 1015.4 hPa | 0 mm | - | 0 W/m² | - |
| 1788321168 | 16.67° C | 24% | 1015.4 hPa | 0 mm | - | 0 W/m² | - |
| 1788320866 | 16.67° C | 23% | 1015.3 hPa | 0 mm | - | 0 W/m² | - |
| 1788320562 | 16.67° C | 23% | 1015.5 hPa | 0 mm | - | 0 W/m² | - |
| 1788320260 | 17.22° C | 22% | 1015.2 hPa | 0 mm | - | 0 W/m² | - |
| 1788319955 | 16.67° C | 23% | 1015.3 hPa | 0 mm | - | 0 W/m² | - |
| 1788319653 | 16.67° C | 23% | 1015.3 hPa | 0 mm | - | 0 W/m² | - |
| 1788319348 | 16.67° C | 24% | 1015.2 hPa | 0 mm | - | 0 W/m² | - |
| 1788319048 | 17.22° C | 23% | 1015.2 hPa | 0 mm | - | 0 W/m² | - |
| 1788318739 | 17.22° C | 21% | 1014.8 hPa | 0 mm | - | 0 W/m² | - |
| 1788318435 | 17.78° C | 23% | 1015 hPa | 0 mm | - | 0 W/m² | - |
| 1788318134 | 17.22° C | 23% | 1015 hPa | 0 mm | - | 0 W/m² | - |
| 1788317833 | 17.78° C | 22% | 1015 hPa | 0 mm | - | 0 W/m² | - |
| 1788317528 | 17.78° C | 23% | 1015.1 hPa | 0 mm | - | 0 W/m² | - |
| 1788317223 | 17.78° C | 23% | 1014.7 hPa | 0 mm | - | 0 W/m² | - |
| 1788316918 | 17.78° C | 19% | 1015.1 hPa | 0 mm | - | 0 W/m² | - |
* Rain latest hour (hover to see other rain measurements)
** Current wind speed in m/s (hover to see current wind gust speed)